ATLAS 5 CENTAUR DEB, 44016

Orbit data source: Space-Track

ATLAS 5 CENTAUR DEB, 44016 is space debris in HEO originally from a launch on Wed, 17 Sep 2014 UTC launched from the Air Force Eastern Test Range (AFETR). Debris objects in space refer to the collection of defunct objects orbiting the Earth. Examples of debris include non-operational satellites, rocket bodies, and fragments generated from explosions, collisions, or faulty payload assembly.

Loading next visibility...
Identifier
44016, 2014-055BX
Orbit
HEO
Country
Flag of USUS
Related business
Flag of USUnited Launch Alliance/Lockheed Martin (US)
Manufacturer
Unknown
Mission
Spacecraft
Bus & Motor
Unknown
Mass
Unknown
Launch date (UTC)
2014-09-17 (11 years ago)
Launch vehicle
Unknown
Launch site
Air Force Eastern Test Range (AFETR)
Object type
Payload
Rocket body
Debris
Shape & HBR
Unknown shape, 1.1 m
Radar Cross Section
Small (<0.1 m²)

Expand to show TLE details & history
Last TLE update: 3 months ago

TLE from 3 months ago
0 ATLAS 5 CENTAUR DEB
1 44016U 14055BX  25263.70921195 -.00000018  00000-0  00000-0 0  9992
2 44016  19.3998 178.6081 4802817 102.1565 313.6326  1.83872720 46447
Epoch: 2025-09-20T17:01Z
TLE epoch observation values (Epoch: 2025-09-20T17:01:15.912Z)
Latitude
0.00003°
Longitude
-76.58425°
Altitude
17,747.959 km
Speed
4.345 km/s
True Right ascension
11h 54m 16s
True Declination
0° 00' 00"
Sunlit
Object was in daylight at epoch
Visualization orbit readout
Latitude
Unknown
Longitude
Unknown
Altitude
Unknown
Speed
Unknown
Apparent Right ascension
Unknown
Apparent Declination
Unknown
Sunlit
N/A
Visualization observer readout
Local Sidereal Time
12:32:15
Azimuth
Unknown
Elevation
Unknown
Doppler factor
Unknown
Orbital elements
Apogee altitude
35,286.232 km
Perigee altitude
8,249.981 km
Semi-major axis
28,146.243 km
Eccentricity
0.48028
Inclination
19.3998°
RAAN
178.6081°
Arg. of periapsis
102.1565°
True anomaly
257.75026°
Mean anomaly
313.6326°
Eccentric anomaly
287.3693°
Mean motion
0.45963 °/min
Orbital period
783.23 mins
BSTAR
0
Loading maneuver chart data...
Computing Atmospheric mass density...

Documentation

Showing up to 5 results
|